This is the latest recevied weather packets stored in our database for station/object VK4TW-13. If no packets are shown the sender has not sent any weather packets the latest 10 day(s).
| Time | Temp. | Humidity | Pressure | Rain* | Wind** | Luminosity | Snow |
|---|---|---|---|---|---|---|---|
| 1788588892 | 25° C | 100% | 1017 hPa | 0 mm | - | - | - |
| 1788588291 | 25° C | 100% | 1016.8 hPa | 0 mm | - | - | - |
| 1788588034 | 25.56° C | 100% | 1016.9 hPa | 0 mm | - | - | - |
| 1788587827 | 25.56° C | 100% | 1016.8 hPa | 0 mm | - | - | - |
| 1788587226 | 25.56° C | 100% | 1016.8 hPa | 0 mm | - | - | - |
| 1788586624 | 25.56° C | 100% | 1016.9 hPa | 0 mm | - | - | - |
| 1788586024 | 25.56° C | 100% | 1017 hPa | 0 mm | - | - | - |
| 1788585423 | 26.11° C | 100% | 1017 hPa | 0 mm | - | - | - |
| 1788584822 | 26.11° C | 100% | 1017 hPa | 0 mm | - | - | - |
| 1788584221 | 26.11° C | 100% | 1017 hPa | 0 mm | - | - | - |
| 1788584021 | 26.11° C | 100% | 1017 hPa | 0 mm | - | - | - |
| 1788583763 | 25.56° C | 100% | 1017 hPa | 0 mm | - | - | - |
| 1788583520 | 25.56° C | 100% | 1017.1 hPa | 0 mm | - | - | - |
| 1788583262 | 26.11° C | 100% | 1017.1 hPa | 0 mm | - | - | - |
| 1788583051 | 26.11° C | 100% | 1017.2 hPa | 0 mm | - | - | - |
| 1788582770 | 26.11° C | 100% | 1017.2 hPa | 0 mm | - | - | - |
| 1788582297 | 26.11° C | 100% | 1017.4 hPa | 0 mm | - | - | - |
| 1788582088 | 26.67° C | 100% | 1017.3 hPa | 0 mm | - | - | - |
| 1788581771 | 26.67° C | 100% | 1017.4 hPa | 0 mm | - | - | - |
| 1788581485 | 26.67° C | 100% | 1017.5 hPa | 0 mm | - | - | - |
| 1788581199 | 26.67° C | 100% | 1017.7 hPa | 0 mm | - | - | - |
| 1788581016 | 26.67° C | 100% | 1017.7 hPa | 0 mm | - | - | - |
| 1788580828 | 26.67° C | 100% | 1017.7 hPa | 0 mm | - | - | - |
| 1788580391 | 27.22° C | 100% | 1017.8 hPa | 0 mm | - | - | - |
| 1788580204 | 27.22° C | 100% | 1017.9 hPa | 0 mm | - | - | - |
* Rain since midnight (hover to see other rain measurements)
** Current wind speed in m/s (hover to see current wind gust speed)